PGT720 LTFJ-OJAI

Flight info

Callsign PGT720
Flight time 2h 8m
Altitude 37000
Route LTFJ/24L ROXU1X ROXUK UN617 IRGAK UM855 TOMBI DCT SAFTA L324 LAKTO L560 SERMA L550 KARIK B411 ULINA M319 LOSIL DCT QTR DCT OJAI/08L
Aircraft A320/M-SDE3FGHIRWY/LB1

Departure

Time 2026-05-07 13:09
Airport Istanbul Sabiha Gökçen International Airport (LTFJ)

Arrival

Time 2026-05-07 15:17
Airport Queen Alia International Airport (OJAI)
Time Latitude Longitude Altitude Speed Heading
2026-05-07 12:14 40.90638 29.31735 321 ft 0 kts 334°
2026-05-07 12:53 40.90634 29.31738 320 ft 2 kts 334°
2026-05-07 12:54 40.90618 29.31748 320 ft 2 kts 334°
2026-05-07 12:54 40.90603 29.31758 321 ft 2 kts 334°
2026-05-07 12:54 40.90587 29.31766 321 ft 3 kts
2026-05-07 12:54 40.90570 29.31760 321 ft 3 kts 40°
2026-05-07 12:55 40.90560 29.31745 321 ft 0 kts 63°
2026-05-07 12:58 40.90561 29.31747 321 ft 1 kts 63°
2026-05-07 12:59 40.90589 29.31821 321 ft 12 kts 63°
2026-05-07 12:59 40.90625 29.31917 319 ft 13 kts 64°
2026-05-07 12:59 40.90685 29.32082 321 ft 24 kts 64°
2026-05-07 12:59 40.90735 29.32231 321 ft 12 kts 86°
2026-05-07 13:00 40.90680 29.32300 319 ft 11 kts 153°
2026-05-07 13:00 40.90620 29.32346 320 ft 9 kts 135°
2026-05-07 13:00 40.90588 29.32413 318 ft 10 kts 136°
2026-05-07 13:00 40.90519 29.32462 318 ft 12 kts 154°
2026-05-07 13:01 40.90420 29.32526 315 ft 19 kts 153°
2026-05-07 13:01 40.90297 29.32575 320 ft 17 kts 202°
2026-05-07 13:01 40.90233 29.32443 320 ft 18 kts 244°
2026-05-07 13:01 40.90170 29.32295 320 ft 19 kts 242°
2026-05-07 13:02 40.90118 29.32132 320 ft 19 kts 245°
2026-05-07 13:02 40.90050 29.32053 320 ft 14 kts 168°
2026-05-07 13:02 40.89960 29.32109 317 ft 16 kts 154°
2026-05-07 13:02 40.89846 29.32184 311 ft 21 kts 154°
2026-05-07 13:03 40.89703 29.32276 306 ft 24 kts 154°
2026-05-07 13:03 40.89590 29.32347 309 ft 11 kts 168°
2026-05-07 13:03 40.89524 29.32365 307 ft 9 kts 154°
2026-05-07 13:03 40.89501 29.32433 307 ft 8 kts 82°
2026-05-07 13:04 40.89531 29.32525 306 ft 17 kts 63°
2026-05-07 13:04 40.89601 29.32715 307 ft 28 kts 64°
2026-05-07 13:04 40.89700 29.32980 307 ft 34 kts 64°
2026-05-07 13:04 40.89806 29.33265 303 ft 35 kts 64°
2026-05-07 13:05 40.89914 29.33556 307 ft 34 kts 64°
2026-05-07 13:05 40.89993 29.33775 314 ft 23 kts 64°
2026-05-07 13:05 40.90026 29.33866 316 ft 7 kts 71°
2026-05-07 13:05 40.90019 29.33919 317 ft 4 kts 127°
2026-05-07 13:06 40.89992 29.33935 316 ft 4 kts 155°
2026-05-07 13:06 40.89962 29.33954 317 ft 5 kts 155°
2026-05-07 13:06 40.89954 29.33958 317 ft 0 kts 155°
2026-05-07 13:07 40.89918 29.33981 318 ft 7 kts 154°
2026-05-07 13:07 40.89886 29.34001 319 ft 6 kts 154°
2026-05-07 13:08 40.89854 29.33979 319 ft 5 kts 242°
2026-05-07 13:08 40.89852 29.33975 319 ft 0 kts 243°
2026-05-07 13:08 40.89812 29.33867 315 ft 47 kts 244°
2026-05-07 13:08 40.89561 29.33181 306 ft 115 kts 244°
2026-05-07 13:09 40.89135 29.32016 311 ft 164 kts 244°
2026-05-07 13:09 40.88651 29.30689 994 ft 160 kts 244°
2026-05-07 13:09 40.88103 29.29388 1574 ft 171 kts 226°
2026-05-07 13:09 40.87004 29.28565 2035 ft 192 kts 205°
2026-05-07 13:10 40.85712 29.27804 2536 ft 216 kts 209°
2026-05-07 13:10 40.84402 29.26751 3329 ft 223 kts 213°
2026-05-07 13:10 40.83104 29.25577 4215 ft 232 kts 216°
2026-05-07 13:10 40.81712 29.24285 4662 ft 256 kts 216°
2026-05-07 13:11 40.80246 29.22938 5572 ft 259 kts 216°
2026-05-07 13:11 40.78718 29.21565 6215 ft 269 kts 216°
2026-05-07 13:11 40.77030 29.20532 7212 ft 271 kts 195°
2026-05-07 13:11 40.75155 29.20355 8001 ft 281 kts 174°
2026-05-07 13:12 40.73252 29.21159 8680 ft 293 kts 154°
2026-05-07 13:12 40.71420 29.22347 9555 ft 295 kts 155°
2026-05-07 13:12 40.69548 29.23534 10255 ft 305 kts 155°
2026-05-07 13:12 40.67556 29.24782 10545 ft 329 kts 155°
2026-05-07 13:13 40.65414 29.26118 10792 ft 353 kts 155°
2026-05-07 13:13 40.63127 29.27541 11071 ft 373 kts 155°
2026-05-07 13:13 40.60738 29.29024 11648 ft 382 kts 155°
2026-05-07 13:13 40.58314 29.30530 12356 ft 387 kts 155°
2026-05-07 13:14 40.55860 29.32053 13029 ft 392 kts 155°
2026-05-07 13:14 40.53380 29.33586 13700 ft 396 kts 155°
2026-05-07 13:14 40.50902 29.35118 14310 ft 401 kts 155°
2026-05-07 13:14 40.48396 29.36777 14924 ft 406 kts 149°
2026-05-07 13:15 40.46082 29.38926 15499 ft 410 kts 141°
2026-05-07 13:15 40.43842 29.41276 16063 ft 414 kts 141°
2026-05-07 13:15 40.41579 29.43653 16617 ft 419 kts 141°
2026-05-07 13:15 40.39288 29.46054 17138 ft 423 kts 141°
2026-05-07 13:16 40.36970 29.48477 17675 ft 427 kts 141°
2026-05-07 13:16 40.34634 29.50912 18229 ft 431 kts 141°
2026-05-07 13:16 40.32272 29.53366 18701 ft 435 kts 141°
2026-05-07 13:16 40.29889 29.55841 19193 ft 440 kts 141°
2026-05-07 13:17 40.27481 29.58344 19651 ft 444 kts 141°
2026-05-07 13:17 40.25052 29.60868 20114 ft 447 kts 141°
2026-05-07 13:17 40.22474 29.63189 20542 ft 453 kts 150°
2026-05-07 13:17 40.19613 29.64956 20979 ft 456 kts 160°
2026-05-07 13:18 40.16596 29.66093 21392 ft 458 kts 170°
2026-05-07 13:18 40.13444 29.66767 21826 ft 461 kts 173°
2026-05-07 13:18 40.10262 29.67423 22236 ft 465 kts 173°
2026-05-07 13:18 40.07058 29.68089 22634 ft 468 kts 173°
2026-05-07 13:19 40.03824 29.68765 23006 ft 471 kts 173°
2026-05-07 13:19 40.00574 29.69445 23385 ft 474 kts 173°
2026-05-07 13:19 39.97301 29.70129 23762 ft 478 kts 173°
2026-05-07 13:19 39.94005 29.70818 24121 ft 481 kts 173°
2026-05-07 13:20 39.90691 29.71555 24496 ft 485 kts 169°
2026-05-07 13:20 39.87444 29.72788 24850 ft 490 kts 160°
2026-05-07 13:20 39.84294 29.74522 25199 ft 492 kts 158°
2026-05-07 13:20 39.81147 29.76304 25529 ft 495 kts 158°
2026-05-07 13:21 39.77981 29.78094 25847 ft 497 kts 158°
2026-05-07 13:21 39.74801 29.79889 26156 ft 499 kts 158°
2026-05-07 13:21 39.71608 29.81692 26460 ft 502 kts 158°
2026-05-07 13:21 39.68396 29.83500 26759 ft 504 kts 158°
2026-05-07 13:22 39.65167 29.85312 27062 ft 506 kts 158°
2026-05-07 13:22 39.61926 29.87126 27347 ft 509 kts 158°
2026-05-07 13:22 39.58673 29.88949 27628 ft 511 kts 158°
2026-05-07 13:22 39.55406 29.90782 27990 ft 510 kts 158°
2026-05-07 13:23 39.52191 29.92583 28388 ft 509 kts 158°
2026-05-07 13:23 39.48940 29.94406 28768 ft 509 kts 158°
2026-05-07 13:23 39.45696 29.96239 29147 ft 508 kts 158°
2026-05-07 13:23 39.42462 29.98073 29524 ft 508 kts 157°
2026-05-07 13:24 39.39230 29.99908 29915 ft 507 kts 158°
2026-05-07 13:24 39.35999 30.01738 30278 ft 506 kts 158°
2026-05-07 13:24 39.32772 30.03561 30638 ft 506 kts 158°
2026-05-07 13:24 39.29550 30.05371 31009 ft 505 kts 158°
2026-05-07 13:25 39.26330 30.07177 31371 ft 504 kts 158°
2026-05-07 13:25 39.23116 30.08983 31735 ft 503 kts 158°
2026-05-07 13:25 39.19913 30.10784 32091 ft 502 kts 158°
2026-05-07 13:25 39.16713 30.12579 32446 ft 501 kts 158°
2026-05-07 13:26 39.13515 30.14370 32777 ft 501 kts 158°
2026-05-07 13:26 39.10320 30.16156 33105 ft 500 kts 158°
2026-05-07 13:26 39.07132 30.17937 33432 ft 499 kts 158°
2026-05-07 13:26 39.03943 30.19719 33760 ft 498 kts 158°
2026-05-07 13:27 39.00766 30.21494 34066 ft 498 kts 158°
2026-05-07 13:27 38.97589 30.23271 34384 ft 497 kts 158°
2026-05-07 13:27 38.94418 30.25050 34703 ft 497 kts 158°
2026-05-07 13:27 38.91254 30.26826 35026 ft 496 kts 158°
2026-05-07 13:28 38.88096 30.28596 35320 ft 495 kts 158°
2026-05-07 13:28 38.84939 30.30359 35617 ft 494 kts 158°
2026-05-07 13:28 38.81783 30.32118 35896 ft 494 kts 158°
2026-05-07 13:28 38.78632 30.33868 36151 ft 493 kts 158°
2026-05-07 13:29 38.75485 30.35616 36392 ft 493 kts 158°
2026-05-07 13:29 38.72337 30.37366 36625 ft 493 kts 158°
2026-05-07 13:29 38.69199 30.39107 36929 ft 491 kts 158°
2026-05-07 13:29 38.66071 30.40839 37130 ft 488 kts 158°
2026-05-07 13:30 38.59851 30.44274 37179 ft 487 kts 158°
2026-05-07 13:30 38.53626 30.47711 37182 ft 487 kts 158°
2026-05-07 13:31 38.47455 30.51117 37184 ft 487 kts 158°
2026-05-07 13:31 38.41233 30.54538 37187 ft 487 kts 158°
2026-05-07 13:32 38.35014 30.57960 37181 ft 487 kts 158°
2026-05-07 13:32 38.28739 30.61168 37185 ft 484 kts 167°
2026-05-07 13:33 38.23223 30.62415 37179 ft 480 kts 178°
2026-05-07 13:33 38.16576 30.63271 37180 ft 480 kts 178°
2026-05-07 13:34 38.06639 30.64586 37186 ft 481 kts 178°
2026-05-07 13:35 37.99986 30.65464 37182 ft 481 kts 177°
2026-05-07 13:35 37.93333 30.66364 37193 ft 481 kts 177°
2026-05-07 13:36 37.86643 30.67336 37192 ft 480 kts 177°
2026-05-07 13:36 37.80042 30.68195 37189 ft 480 kts 178°
2026-05-07 13:37 37.73396 30.68988 37176 ft 480 kts 178°
2026-05-07 13:37 37.66747 30.69782 37181 ft 480 kts 178°
2026-05-07 13:38 37.60091 30.70597 37187 ft 480 kts 178°
2026-05-07 13:38 37.53441 30.71470 37182 ft 480 kts 176°
2026-05-07 13:39 37.46802 30.72474 37182 ft 480 kts 176°
2026-05-07 13:39 37.40164 30.73486 37171 ft 480 kts 177°
2026-05-07 13:40 37.33506 30.74351 37165 ft 480 kts 178°
2026-05-07 13:40 37.26858 30.75138 37156 ft 480 kts 178°
2026-05-07 13:41 37.20214 30.75936 37151 ft 479 kts 178°
2026-05-07 13:41 37.13574 30.76764 37147 ft 480 kts 178°
2026-05-07 13:42 37.06935 30.77597 37141 ft 479 kts 178°
2026-05-07 13:42 37.00338 30.78420 37139 ft 479 kts 178°
2026-05-07 13:43 36.93702 30.79241 37130 ft 479 kts 178°
2026-05-07 13:43 36.87066 30.79833 37126 ft 477 kts 181°
2026-05-07 13:44 36.80439 30.79983 37126 ft 476 kts 183°
2026-05-07 13:44 36.73816 30.80071 37124 ft 476 kts 182°
2026-05-07 13:45 36.67196 30.80266 37124 ft 476 kts 182°
2026-05-07 13:45 36.60576 30.80528 37129 ft 476 kts 181°
2026-05-07 13:46 36.53964 30.80774 37131 ft 475 kts 182°
2026-05-07 13:46 36.47359 30.80996 37131 ft 474 kts 182°
2026-05-07 13:47 36.40757 30.81220 37131 ft 474 kts 182°
2026-05-07 13:47 36.34160 30.81443 37131 ft 474 kts 182°
2026-05-07 13:48 36.27566 30.81667 37132 ft 474 kts 182°
2026-05-07 13:48 36.20975 30.81880 37130 ft 473 kts 182°
2026-05-07 13:49 36.14386 30.82095 37131 ft 474 kts 182°
2026-05-07 13:49 36.07799 30.82319 37134 ft 474 kts 182°
2026-05-07 13:50 36.01256 30.83512 37133 ft 479 kts 165°
2026-05-07 13:50 35.94882 30.85985 37133 ft 480 kts 165°
2026-05-07 13:51 35.88523 30.88439 37139 ft 478 kts 165°
2026-05-07 13:51 35.82162 30.90869 37138 ft 478 kts 165°
2026-05-07 13:52 35.75859 30.93280 37138 ft 478 kts 165°
2026-05-07 13:52 35.69520 30.95710 37140 ft 477 kts 165°
2026-05-07 13:53 35.63175 30.98131 37139 ft 477 kts 165°
2026-05-07 13:53 35.56833 31.00553 37143 ft 477 kts 165°
2026-05-07 13:54 35.50491 31.02965 37147 ft 477 kts 165°
2026-05-07 13:54 35.44142 31.05380 37143 ft 477 kts 165°
2026-05-07 13:55 35.37802 31.07786 37142 ft 477 kts 165°
2026-05-07 13:55 35.31462 31.10184 37142 ft 477 kts 165°
2026-05-07 13:56 35.25122 31.12581 37141 ft 476 kts 165°
2026-05-07 13:56 35.18792 31.14973 37140 ft 476 kts 165°
2026-05-07 13:57 35.12465 31.17367 37138 ft 476 kts 165°
2026-05-07 13:57 35.06142 31.19751 37134 ft 476 kts 166°
2026-05-07 13:58 34.99810 31.22125 37137 ft 475 kts 166°
2026-05-07 13:58 34.93525 31.24476 37135 ft 475 kts 166°
2026-05-07 13:59 34.87205 31.26846 37137 ft 475 kts 166°
2026-05-07 13:59 34.80897 31.29215 37128 ft 474 kts 166°
2026-05-07 14:00 34.74599 31.31567 37128 ft 473 kts 166°
2026-05-07 14:00 34.68304 31.33915 37128 ft 473 kts 166°
2026-05-07 14:01 34.62014 31.36252 37126 ft 472 kts 166°
2026-05-07 14:01 34.55734 31.38585 37122 ft 472 kts 166°
2026-05-07 14:02 34.49461 31.40919 37121 ft 471 kts 166°
2026-05-07 14:02 34.43194 31.43238 37121 ft 470 kts 166°
2026-05-07 14:03 34.36934 31.45552 37122 ft 469 kts 166°
2026-05-07 14:03 34.30692 31.47860 37121 ft 469 kts 166°
2026-05-07 14:04 34.24459 31.50158 37119 ft 468 kts 166°
2026-05-07 14:04 34.18231 31.52446 37118 ft 468 kts 166°
2026-05-07 14:05 34.12010 31.54729 37118 ft 467 kts 166°
2026-05-07 14:05 34.05798 31.57007 37120 ft 466 kts 166°
2026-05-07 14:06 33.99602 31.59286 37115 ft 465 kts 166°
2026-05-07 14:06 33.93445 31.61545 37116 ft 465 kts 167°
2026-05-07 14:07 33.87255 31.63804 37113 ft 465 kts 167°
2026-05-07 14:07 33.81062 31.66059 37111 ft 465 kts 167°
2026-05-07 14:08 33.74876 31.68308 37112 ft 464 kts 167°
2026-05-07 14:08 33.68691 31.70554 37105 ft 464 kts 167°
2026-05-07 14:09 33.62509 31.72791 37102 ft 464 kts 166°
2026-05-07 14:09 33.56328 31.75032 37108 ft 464 kts 166°
2026-05-07 14:10 33.50145 31.77278 37100 ft 464 kts 166°
2026-05-07 14:10 33.43961 31.79516 37100 ft 464 kts 166°
2026-05-07 14:11 33.37776 31.81742 37100 ft 464 kts 166°
2026-05-07 14:11 33.31583 31.83969 37099 ft 465 kts 166°
2026-05-07 14:12 33.25386 31.86192 37104 ft 465 kts 167°
2026-05-07 14:12 33.19191 31.88416 37101 ft 465 kts 166°
2026-05-07 14:13 33.12994 31.90642 37105 ft 465 kts 166°
2026-05-07 14:13 33.06798 31.92864 37109 ft 465 kts 166°
2026-05-07 14:14 33.00598 31.95086 37106 ft 465 kts 166°
2026-05-07 14:14 32.94408 31.97293 37111 ft 465 kts 166°
2026-05-07 14:15 32.88208 31.99496 37112 ft 465 kts 166°
2026-05-07 14:15 32.82018 32.01695 37121 ft 464 kts 166°
2026-05-07 14:16 32.75845 32.03887 37132 ft 462 kts 166°
2026-05-07 14:16 32.70735 32.05706 37132 ft 461 kts 166°
2026-05-07 14:17 32.64627 32.08014 37129 ft 462 kts 160°
2026-05-07 14:17 32.59091 32.11934 37125 ft 466 kts 146°
2026-05-07 14:18 32.53827 32.16432 37121 ft 466 kts 147°
2026-05-07 14:18 32.48554 32.20902 37119 ft 465 kts 147°
2026-05-07 14:19 32.43283 32.25354 37115 ft 465 kts 147°
2026-05-07 14:19 32.38017 32.29806 37118 ft 465 kts 147°
2026-05-07 14:20 32.32748 32.34254 37114 ft 465 kts 147°
2026-05-07 14:20 32.27481 32.38700 37114 ft 465 kts 147°
2026-05-07 14:21 32.22214 32.43145 37111 ft 466 kts 147°
2026-05-07 14:21 32.16972 32.47551 37112 ft 465 kts 147°
2026-05-07 14:22 32.11697 32.51974 37112 ft 465 kts 147°
2026-05-07 14:22 32.06423 32.56404 37113 ft 465 kts 147°
2026-05-07 14:23 32.01143 32.60833 37111 ft 465 kts 147°
2026-05-07 14:23 31.95861 32.65233 37113 ft 465 kts 147°
2026-05-07 14:24 31.90580 32.69632 37119 ft 465 kts 147°
2026-05-07 14:24 31.85300 32.74040 37118 ft 465 kts 147°
2026-05-07 14:25 31.80023 32.78428 37119 ft 464 kts 147°
2026-05-07 14:25 31.74738 32.82809 37119 ft 464 kts 147°
2026-05-07 14:26 31.69469 32.87193 37116 ft 464 kts 147°
2026-05-07 14:26 31.64191 32.91570 37114 ft 464 kts 147°
2026-05-07 14:27 31.58914 32.95933 37111 ft 464 kts 147°
2026-05-07 14:27 31.53673 33.00263 37111 ft 464 kts 147°
2026-05-07 14:28 31.48393 33.04617 37115 ft 463 kts 147°
2026-05-07 14:28 31.43114 33.08966 37109 ft 463 kts 147°
2026-05-07 14:29 31.37837 33.13300 37111 ft 463 kts 148°
2026-05-07 14:29 31.32289 33.17045 37105 ft 460 kts 154°
2026-05-07 14:30 31.26652 33.20601 37102 ft 460 kts 154°
2026-05-07 14:30 31.21018 33.24148 37107 ft 460 kts 154°
2026-05-07 14:31 31.15381 33.27701 37107 ft 460 kts 154°
2026-05-07 14:31 31.09744 33.31246 37100 ft 461 kts 154°
2026-05-07 14:32 31.04103 33.34795 37103 ft 460 kts 154°
2026-05-07 14:32 30.98460 33.38329 37105 ft 460 kts 155°
2026-05-07 14:33 30.92814 33.41863 37107 ft 460 kts 155°
2026-05-07 14:33 30.87173 33.45391 37110 ft 460 kts 155°
2026-05-07 14:34 30.81527 33.48924 37115 ft 460 kts 155°
2026-05-07 14:34 30.75876 33.52452 37113 ft 460 kts 155°
2026-05-07 14:35 30.70276 33.55946 37111 ft 460 kts 155°
2026-05-07 14:35 30.64634 33.59464 37109 ft 460 kts 155°
2026-05-07 14:36 30.58991 33.62964 37107 ft 460 kts 155°
2026-05-07 14:36 30.53357 33.66464 37109 ft 459 kts 155°
2026-05-07 14:37 30.47725 33.69952 37105 ft 458 kts 155°
2026-05-07 14:37 30.39288 33.75167 37093 ft 458 kts 155°
2026-05-07 14:38 30.33673 33.78641 37081 ft 457 kts 155°
2026-05-07 14:38 30.28058 33.82102 37077 ft 457 kts 155°
2026-05-07 14:39 30.22450 33.85560 37067 ft 457 kts 155°
2026-05-07 14:39 30.16843 33.89016 37053 ft 457 kts 155°
2026-05-07 14:40 30.11225 33.92458 37043 ft 457 kts 155°
2026-05-07 14:40 30.05600 33.95903 37036 ft 458 kts 155°
2026-05-07 14:41 29.99982 33.99352 37028 ft 458 kts 155°
2026-05-07 14:41 29.94358 34.02795 37022 ft 457 kts 155°
2026-05-07 14:42 29.88734 34.06228 37017 ft 458 kts 155°
2026-05-07 14:42 29.83109 34.09666 37013 ft 458 kts 155°
2026-05-07 14:43 29.77481 34.13099 37006 ft 457 kts 155°
2026-05-07 14:43 29.71856 34.16521 36999 ft 457 kts 155°
2026-05-07 14:44 29.66409 34.20300 36991 ft 462 kts 142°
2026-05-07 14:44 29.64155 34.22950 36987 ft 466 kts 130°
2026-05-07 14:44 29.62392 34.26090 36984 ft 470 kts 118°
2026-05-07 14:45 29.61223 34.29605 36982 ft 473 kts 105°
2026-05-07 14:45 29.60716 34.33299 36976 ft 475 kts 93°
2026-05-07 14:45 29.60715 34.40907 36969 ft 476 kts 91°
2026-05-07 14:46 29.60713 34.48523 36965 ft 477 kts 91°
2026-05-07 14:46 29.59960 34.56048 36962 ft 473 kts 109°
2026-05-07 14:47 29.57184 34.62802 36964 ft 465 kts 129°
2026-05-07 14:47 29.52788 34.68102 36965 ft 456 kts 145°
2026-05-07 14:48 29.47984 34.72883 36970 ft 461 kts 136°
2026-05-07 14:48 29.44453 34.79083 36969 ft 471 kts 116°
2026-05-07 14:49 29.43424 34.82664 36968 ft 476 kts 105°
2026-05-07 14:49 29.42870 34.86418 36963 ft 478 kts 101°
2026-05-07 14:49 29.42856 34.94065 36959 ft 484 kts 82°
2026-05-07 14:50 29.43677 34.97813 36956 ft 486 kts 71°
2026-05-07 14:50 29.45047 35.01366 36953 ft 487 kts 60°
2026-05-07 14:50 29.49109 35.07556 36949 ft 487 kts 49°
2026-05-07 14:51 29.53492 35.13462 36951 ft 489 kts 49°
2026-05-07 14:51 29.58430 35.18770 36952 ft 486 kts 32°
2026-05-07 14:52 29.64420 35.22226 36950 ft 480 kts 14°
2026-05-07 14:52 29.70788 35.24550 36944 ft 480 kts 14°
2026-05-07 14:53 29.77163 35.26891 36943 ft 481 kts 14°
2026-05-07 14:53 29.83544 35.29246 36943 ft 482 kts 14°
2026-05-07 14:54 29.89930 35.31602 36941 ft 482 kts 14°
2026-05-07 14:54 29.96320 35.33956 36942 ft 482 kts 14°
2026-05-07 14:55 30.02716 35.36316 36950 ft 482 kts 14°
2026-05-07 14:55 30.09100 35.38683 36966 ft 482 kts 14°
2026-05-07 14:56 30.15479 35.41053 36974 ft 481 kts 14°
2026-05-07 14:56 30.21789 35.43504 36981 ft 483 kts 20°
2026-05-07 14:57 30.27849 35.47044 36983 ft 485 kts 25°
2026-05-07 14:57 30.33802 35.50629 36989 ft 485 kts 25°
2026-05-07 14:58 30.39779 35.54241 36990 ft 484 kts 25°
2026-05-07 14:58 30.45756 35.57848 36988 ft 484 kts 25°
2026-05-07 14:59 30.51753 35.61451 36228 ft 491 kts 25°
2026-05-07 14:59 30.54804 35.63293 35435 ft 492 kts 25°
2026-05-07 14:59 30.57833 35.65129 34716 ft 491 kts 25°
2026-05-07 15:00 30.60860 35.66966 33905 ft 491 kts 25°
2026-05-07 15:00 30.63876 35.68801 33072 ft 485 kts 25°
2026-05-07 15:00 30.66859 35.70618 31620 ft 484 kts 25°
2026-05-07 15:00 30.69849 35.72438 30061 ft 485 kts 25°
2026-05-07 15:01 30.71820 35.73637 29272 ft 480 kts 25°
2026-05-07 15:01 30.74755 35.75424 28027 ft 473 kts 25°
2026-05-07 15:01 30.77645 35.77183 26809 ft 465 kts 25°
2026-05-07 15:01 30.80467 35.78972 25580 ft 462 kts 30°
2026-05-07 15:02 30.83085 35.81157 24347 ft 466 kts 38°
2026-05-07 15:02 30.85538 35.83644 23128 ft 467 kts 39°
2026-05-07 15:02 30.87977 35.86130 21984 ft 467 kts 39°
2026-05-07 15:02 30.90421 35.88617 21054 ft 467 kts 39°
2026-05-07 15:03 30.92868 35.91103 20111 ft 467 kts 40°
2026-05-07 15:03 30.95313 35.93590 19229 ft 466 kts 40°
2026-05-07 15:03 30.97747 35.96069 18319 ft 465 kts 40°
2026-05-07 15:03 31.00174 35.98547 17444 ft 463 kts 40°
2026-05-07 15:04 31.02591 36.01017 16594 ft 460 kts 40°
2026-05-07 15:04 31.04994 36.03473 15773 ft 458 kts 40°
2026-05-07 15:04 31.07383 36.05913 15039 ft 453 kts 40°
2026-05-07 15:04 31.09741 36.08321 14245 ft 450 kts 40°
2026-05-07 15:05 31.12076 36.10709 13516 ft 444 kts 40°
2026-05-07 15:05 31.14384 36.13055 12815 ft 436 kts 39°
2026-05-07 15:05 31.16877 36.15038 12090 ft 430 kts 28°
2026-05-07 15:05 31.19568 36.16488 11346 ft 423 kts 20°
2026-05-07 15:06 31.22251 36.17716 11151 ft 404 kts 20°
2026-05-07 15:06 31.24800 36.18896 11041 ft 385 kts 21°
2026-05-07 15:06 31.27231 36.20030 10932 ft 367 kts 21°
2026-05-07 15:06 31.29550 36.21114 10806 ft 351 kts 21°
2026-05-07 15:07 31.31774 36.22154 10680 ft 338 kts 21°
2026-05-07 15:07 31.33915 36.23155 10569 ft 325 kts 21°
2026-05-07 15:07 31.35970 36.24115 10459 ft 312 kts 21°
2026-05-07 15:07 31.37968 36.25047 10225 ft 306 kts 21°
2026-05-07 15:08 31.39935 36.25964 10109 ft 303 kts 21°
2026-05-07 15:08 31.41892 36.26877 9988 ft 303 kts 21°
2026-05-07 15:08 31.43856 36.27795 9516 ft 304 kts 21°
2026-05-07 15:08 31.45601 36.28610 9069 ft 298 kts 21°
2026-05-07 15:09 31.47520 36.29508 8613 ft 297 kts 21°
2026-05-07 15:09 31.49443 36.30389 8227 ft 295 kts 18°
2026-05-07 15:09 31.51448 36.30850 7777 ft 293 kts
2026-05-07 15:09 31.53467 36.30703 7283 ft 288 kts 349°
2026-05-07 15:10 31.55430 36.30308 6816 ft 285 kts 350°
2026-05-07 15:10 31.57370 36.29924 6377 ft 282 kts 350°
2026-05-07 15:10 31.59299 36.29548 5940 ft 280 kts 350°
2026-05-07 15:10 31.61214 36.29176 5514 ft 278 kts 350°
2026-05-07 15:11 31.63125 36.28806 5084 ft 278 kts 350°
2026-05-07 15:11 31.65007 36.28443 4662 ft 276 kts 349°
2026-05-07 15:11 31.66879 36.28082 4445 ft 267 kts 349°
2026-05-07 15:11 31.68670 36.27738 4328 ft 256 kts 349°
2026-05-07 15:12 31.70396 36.27405 4294 ft 249 kts 349°
2026-05-07 15:12 31.72099 36.27075 4300 ft 247 kts 348°
2026-05-07 15:12 31.73720 36.26716 4303 ft 228 kts 339°
2026-05-07 15:12 31.74933 36.25640 4306 ft 220 kts 298°
2026-05-07 15:13 31.75229 36.23914 4306 ft 219 kts 266°
2026-05-07 15:13 31.75037 36.22129 4311 ft 221 kts 261°
2026-05-07 15:13 31.74765 36.20359 4305 ft 216 kts 259°
2026-05-07 15:13 31.74457 36.18693 4297 ft 200 kts 259°
2026-05-07 15:14 31.74193 36.17137 4322 ft 191 kts 261°
2026-05-07 15:14 31.73963 36.15607 4312 ft 189 kts 262°
2026-05-07 15:14 31.73744 36.14091 4302 ft 188 kts 261°
2026-05-07 15:14 31.73527 36.12577 4157 ft 186 kts 262°
2026-05-07 15:15 31.73319 36.11139 3949 ft 172 kts 262°
2026-05-07 15:15 31.73125 36.09784 3750 ft 160 kts 262°
2026-05-07 15:15 31.72951 36.08565 3536 ft 145 kts 262°
2026-05-07 15:15 31.72788 36.07432 3348 ft 138 kts 262°
2026-05-07 15:16 31.72630 36.06329 3168 ft 136 kts 262°
2026-05-07 15:16 31.72474 36.05229 2999 ft 136 kts 262°
2026-05-07 15:16 31.72307 36.04136 2882 ft 136 kts 261°
2026-05-07 15:16 31.72153 36.03056 2691 ft 135 kts 263°
2026-05-07 15:17 31.71998 36.01963 2475 ft 136 kts 262°
2026-05-07 15:17 31.71854 36.00926 2408 ft 116 kts 261°
2026-05-07 15:17 31.71747 36.00192 2409 ft 64 kts 260°
2026-05-07 15:17 31.71770 35.99837 2410 ft 23 kts 293°
2026-05-07 15:18 31.71809 35.99726 2410 ft 13 kts 290°
2026-05-07 15:18 31.71841 35.99617 2409 ft 15 kts 289°
2026-05-07 15:18 31.71900 35.99515 2409 ft 16 kts 338°
2026-05-07 15:18 31.72010 35.99493 2409 ft 12 kts 350°
2026-05-07 15:19 31.72084 35.99469 2409 ft 10 kts 314°
2026-05-07 15:19 31.72093 35.99388 2409 ft 11 kts 261°
2026-05-07 15:19 31.72079 35.99290 2409 ft 13 kts 260°
2026-05-07 15:19 31.72047 35.99180 2409 ft 15 kts 244°
2026-05-07 15:20 31.72025 35.99099 2409 ft 6 kts 258°
2026-05-07 15:20 31.72016 35.99034 2409 ft 13 kts 261°
2026-05-07 15:20 31.72012 35.98961 2409 ft 5 kts 300°
2026-05-07 15:20 31.72048 35.98947 2409 ft 8 kts 349°
2026-05-07 15:21 31.72093 35.98938 2409 ft 2 kts 350°
2026-05-07 15:21 31.72094 35.98938 2409 ft 0 kts 350°